Tracking 26006 objects as of 17-Aug-2022
HD Live streaming from Space Station
objects crossing your sky now

SL-16 DEB

Track SL-16 DEB now!
10-day predictions


NORAD ID: 23410
Int'l Code: 1994-077G
Perigee: 847.7 km
Apogee: 1,178.2 km
Inclination: 71.0 °
Period: 105.2 minutes
Semi major axis: 7383 km
RCS: 0.0892 m2 (small)
Launch date: November 24, 1994
Source: Commonwealth of Independent States (former USSR) (CIS)
Launch site: TYURATAM MISSILE AND SPACE COMPLEX (TTMTR)

Note: This is SATELLITE DEBRIS
aabbcc
Your satellite tracking list
Your tracking list is empty




NASA's NSSDC Master Catalog

Two Line Element Set (TLE):
1 23410U 94077G   22228.83758988  .00000024  00000-0  66673-4 0  9997
2 23410  70.9812  12.7267 0223772 297.5097 230.3682 13.68260404384223
Source of the keplerian elements: AFSPC